K1PH Weather Reports


time (UTC)temp
C
wind
direction
speed
KPH
gust
KPH
rain 1hr
cm
rain 24hr
cm
rain mn
cm
humidity
%
barometer
mb
20260506092008 10 104 0.0 0.0 0.00 0.00 0.00 93 989.6
20260506091007 10 104 0.0 0.0 0.00 0.00 0.00 93 989.7
20260506090007 10 104 0.0 1.6 0.00 0.00 0.00 93 989.6
20260506085008 10 135 0.0 0.0 0.00 0.00 0.00 93 989.6
20260506083008 10 135 0.0 0.0 0.00 0.00 0.00 92 989.8
20260506082009 11 135 0.0 1.6 0.00 0.00 0.00 92 989.9
20260506081008 11 110 0.0 0.0 0.00 0.00 0.00 91 989.9
20260506073007 11 110 0.0 1.6 0.00 0.00 0.00 90 990.2
20260506072007 12 133 0.0 1.6 0.00 0.00 0.00 90 990.3
20260506071007 12 131 1.6 3.2 0.00 0.00 0.00 89 990.2
20260506062007 13 335 0.0 0.0 0.00 0.00 0.00 88 990.0
20260506061007 13 335 0.0 0.0 0.00 0.00 0.00 88 990.2
20260506051007 14 284 0.0 0.0 0.00 0.00 0.00 86 990.2
20260506045006 14 129 0.0 0.0 0.00 0.00 0.00 86 990.3
20260506044007 14 129 0.0 0.0 0.00 0.00 0.00 86 990.2
20260506043006 15 129 1.6 3.2 0.00 0.00 0.00 86 990.2
20260506042006 15 117 1.6 1.6 0.00 0.00 0.00 86 990.2
20260506041006 15 125 0.0 1.6 0.00 0.00 0.00 85 990.2
20260506040006 16 131 1.6 3.2 0.00 0.00 0.00 83 990.3
20260506035007 16 159 0.0 1.6 0.00 0.00 0.00 82 990.2
20260506034007 16 356 1.6 1.6 0.00 0.00 0.00 82 990.0
20260506032007 17 106 0.0 0.0 0.00 0.00 0.00 79 989.9
20260506031006 17 106 0.0 1.6 0.00 0.00 0.00 76 989.9
20260506030006 17 4 0.0 1.6 0.00 0.00 0.00 75 989.8
20260506025006 17 96 0.0 4.8 0.00 0.00 0.00 74 989.8
20260506024006 17 60 0.0 1.6 0.00 0.00 0.00 73 989.9
20260506023006 18 55 0.0 1.6 0.00 0.00 0.00 73 989.9
20260506022006 18 89 0.0 3.2 0.00 0.00 0.00 72 990.1
20260506021006 18 75 3.2 4.8 0.00 0.00 0.00 72 989.8
20260506020006 17 68 3.2 4.8 0.00 0.00 0.00 72 989.5
20260506015007 17 72 3.2 4.8 0.00 0.00 0.00 76 989.5
20260506014006 17 131 0.0 3.2 0.00 0.00 0.00 81 989.6
20260506012006 17 94 1.6 4.8 0.00 0.00 0.00 80 989.5
20260506011006 18 114 4.8 4.8 0.00 0.00 0.00 80 989.3
20260506010006 18 87 4.8 11.3 0.00 0.00 0.00 79 989.3
20260506005006 18 116 3.2 3.2 0.00 0.00 0.00 74 989.2
20260506004007 18 92 1.6 4.8 0.00 0.00 0.00 72 989.5
20260506003010 19 68 4.8 4.8 0.00 0.00 0.00 71 989.2
20260506002006 20 243 0.0 1.6 0.00 0.00 0.00 68 989.0
20260506001006 20 73 0.0 3.2 0.00 0.00 0.00 65 988.7
20260505233005 22 278 3.2 12.9 0.00 0.00 0.00 57 987.8
20260505231006 23 303 4.8 9.7 0.00 0.00 0.00 50 987.2
20260505230005 23 138 3.2 12.9 0.00 0.00 0.00 49 986.7
20260505225006 23 282 4.8 9.7 0.00 0.00 0.00 48 986.5
20260505224006 23 141 3.2 4.8 0.00 0.00 0.00 49 986.4
20260505223005 24 101 3.2 12.9 0.00 0.00 0.00 47 986.0
20260505222006 24 108 4.8 12.9 0.00 0.00 0.00 46 985.9
20260505221005 25 88 3.2 9.7 0.00 0.00 0.00 45 985.8
20260505220005 25 105 1.6 11.3 0.00 0.00 0.00 44 985.7
20260505215005 25 133 3.2 8.0 0.00 0.00 0.00 43 985.7
20260505214006 26 107 3.2 9.7 0.00 0.00 0.00 41 985.5
20260505213005 26 208 3.2 8.0 0.00 0.00 0.00 40 985.4
20260505212006 26 166 3.2 11.3 0.00 0.00 0.00 40 985.3
20260505211005 26 167 3.2 9.7 0.00 0.00 0.00 42 985.2
20260505210005 26 122 1.6 8.0 0.00 0.00 0.00 40 985.0
20260505205005 26 141 4.8 11.3 0.00 0.00 0.00 34 985.0
20260505203005 27 152 3.2 11.3 0.00 0.00 0.00 33 985.1
20260505201010 26 279 3.2 9.7 0.00 0.00 0.00 37 985.4
20260505195010 26 169 3.2 12.9 0.00 0.00 0.00 40 985.4
20260505194010 26 164 4.8 14.5 0.00 0.00 0.00 39 985.5
20260505192010 27 210 3.2 12.9 0.00 0.00 0.00 38 985.6
20260505191010 27 118 4.8 12.9 0.00 0.00 0.00 38 985.7
20260505190010 27 207 3.2 12.9 0.00 0.00 0.00 40 985.6
20260505185010 27 180 3.2 11.3 0.00 0.00 0.00 39 985.9
20260505184009 27 86 6.4 11.3 0.00 0.00 0.00 39 985.9
20260505183010 27 274 4.8 12.9 0.00 0.00 0.00 39 986.1
20260505182009 27 140 3.2 14.5 0.00 0.00 0.00 39 986.3
20260505181010 27 264 8.0 14.5 0.00 0.00 0.00 39 986.5
20260505174009 27 285 6.4 11.3 0.00 0.00 0.00 40 986.5
20260505173009 26 196 6.4 12.9 0.00 0.00 0.00 41 986.8
20260505172009 26 158 4.8 12.9 0.00 0.00 0.00 38 986.8
20260505171009 26 103 3.2 11.3 0.00 0.00 0.00 41 987.0
20260505165009 26 292 3.2 12.9 0.00 0.00 0.00 41 987.3
20260505164013 25 232 1.6 9.7 0.00 0.00 0.00 42 987.6
20260505163009 25 210 3.2 4.8 0.00 0.00 0.00 42 987.8
20260505162009 25 149 3.2 9.7 0.00 0.00 0.00 44 988.0
20260505161009 25 283 3.2 9.7 0.00 0.00 0.00 45 988.1
20260505153009 23 107 3.2 9.7 0.00 0.00 0.00 46 988.9
20260505152009 22 283 3.2 8.0 0.00 0.00 0.00 48 989.1
20260505151009 22 106 3.2 8.0 0.00 0.00 0.00 48 989.3
20260505125009 15 149 3.2 11.3 0.00 0.00 0.00 66 990.1
20260505124008 15 166 1.6 3.2 0.00 0.00 0.00 69 990.2
20260505123008 14 97 6.4 9.7 0.00 0.00 0.00 70 990.2
20260505120008 12 75 1.6 3.2 0.00 0.00 0.00 76 990.3
20260505115008 12 162 0.0 3.2 0.00 0.00 0.00 77 990.4
20260505114008 11 88 3.2 4.8 0.00 0.00 0.00 79 990.5
20260505113008 10 97 1.6 3.2 0.00 0.00 0.00 85 990.5
20260505112008 8 127 0.0 1.6 0.00 0.00 0.00 89 990.5
20260505111008 7 80 0.0 3.2 0.00 0.00 0.00 89 990.4
20260505102008 6 282 0.0 0.0 0.00 0.00 0.00 92 989.8
20260505101008 6 282 0.0 0.0 0.00 0.00 0.00 92 989.8
20260505100007 6 282 0.0 0.0 0.00 0.00 0.00 91 989.8
20260505095008 6 282 0.0 0.0 0.00 0.00 0.00 91 989.8
20260505094008 6 282 0.0 0.0 0.00 0.00 0.00 91 989.8
20260505093007 6 282 0.0 0.0 0.00 0.00 0.00 91 989.9